Location: Gisborne
(38.6530°S, 178.0040°E)
Time: 13:38:08
(UTC+12:00)

ISS - Visible Passes

Search period start: 01 July 2022 00:00
Search period end: 11 July 2022 00:00
Orbit: 414 x 420 km, 51.6° (Epoch: 30 June)

Date Brightness Start Highest point End Pass type
(mag) Time Alt. Az. Time Alt. Az. Time Alt. Az.
02 Jul -1.5 18:10:57 10° SSW 18:12:41 13° SSE 18:12:41 13° SSE visible
03 Jul -1.3 18:58:43 10° SW 18:59:35 16° SSW 18:59:35 16° SSW visible
04 Jul -2.3 18:10:43 10° SSW 18:13:26 22° SSE 18:13:41 21° SSE visible
05 Jul -2.4 18:58:47 10° SW 19:00:52 34° SW 19:00:52 34° SW visible
06 Jul -3.4 18:10:37 10° SW 18:13:56 46° SE 18:15:22 28° E visible
06 Jul -0.2 19:48:05 10° W 19:48:20 11° W 19:48:20 11° W visible
07 Jul -2.8 17:22:31 10° SSW 17:25:34 30° SSE 17:28:36 10° E visible
07 Jul -2.0 18:59:16 10° WSW 19:02:20 31° NW 19:03:08 27° NNW visible
08 Jul -3.1 18:10:46 10° WSW 18:14:08 58° NW 18:17:27 10° NE visible
09 Jul -0.3 19:01:30 10° WNW 19:02:08 10° NW 19:02:47 10° NW visible
10 Jul -0.7 18:11:35 10° W 18:14:03 19° NW 18:16:30 10° N visible
